Location: Audinghen
(50.8518°N, 1.6129°E)
Time: 17:31:24
(UTC+00:00)

Cosmos 2219 Rocket - Pass Details

Date: 07 August 2020
Orbit: 826 x 848 km, 71.0° (Epoch: 24 September)

Event Time Altitude Azimuth Distance (km) Brightness Sun altitude
Rises 00:01:41 0° 330° (NNW) 3,414 6.3 -22.8°
Reaches altitude 10° 00:04:09 10° 330° (NNW) 2,478 5.4 -22.8°
Maximum altitude 00:09:52 89° 63° (ENE) 855 2.1 -22.8°
Enters shadow 00:11:36 47° 151° (SSE) 1,114 2.4 -22.8°
